Tracking 19176 objects as of 28-May-2018
HD Live streaming from Space Station
objects crossing your sky now

GALAXY 4R

Track GALAXY 4R now!
GALAXY 4R is classified as:


NORAD ID: 26298
Int'l Code: 2000-020A
Perigee: 35,910.9 km
Apogee: 35,927.2 km
Inclination: 9.0 °
Period: 1,442.5 minutes
Semi major axis: 42290 km
RCS: 26.0372 m2 (large)
Launch date: April 19, 2000
Source: United States (US)
Launch site: FRENCH GUIANA (FRGUI)

Television and Internet; 24 C-band, 24 Ku-band; North America.
aabbcc
Your satellite tracking list
Your tracking list is empty




NASA's NSSDC Master Catalog

Two Line Element Set (TLE):
1 26298U 00020A   18147.74297487 -.00000067  00000-0  00000+0 0  9991
2 26298   8.9993  43.3943 0001932 210.8158 338.7891  0.99826461 66289
Source of the keplerian elements: AFSPC